User: anonymous   Login
Location: Eyeline Observatory
(43.2182°N, 78.8632°W)
Time: 18:55:33
(UTC-04:00)
Language:

Tiangong 2 - Orbit

View from above orbital plane
View from above orbital plane
View from above satellite
View from above satellite

Ground track
Ground track

The orbit data is extracted from the following two-line orbital elements,

1 41765U 16057A   18172.86565319  .00038186  88219-5  11222-3 0  9994
2 41765  42.7869 312.5106 0004150 315.9055 175.7757 15.92994531100746
Epoch (UTC): 21 June 2018 20:46:32
Eccentricity: 0.0004150
inclination: 42.7869°
perigee height: 291 km
apogee height: 296 km
right ascension of ascending node: 312.5106°
argument of perigee: 315.9055°
revolutions per day: 15.92994531
mean anomaly at epoch: 175.7757°
orbit number at epoch: 10074

The dashed part of the orbit path shows where the satellite is in the earth's shadow,  

DLR